Wetbulb
44.01 43.73 44.11 43.37 43.79 43.12 43.64 43.76 42.79 42.67 42.39 41.90 41.82 41.82 40.60 39.69 39.76 39.05 38.64 37.89 37.40 37.94
43.96 44.10 44.18 43.77 43.45 43.98 43.69 44.40 41.99 42.97 42.59 42.16 42.19 42.24 41.45 40.96 39.84 39.52 38.75 38.32 38.02 37.82
44.15 44.56 45.14 44.43 43.82 44.11 43.85 43.40 43.59 42.89 42.95 42.79 42.55 42.28 41.47 41.15 40.08 39.68 39.61 39.67 38.34 38.08
42.78 44.02 44.42 44.56 44.75 44.93 44.27 43.59 43.91 43.45 43.20 42.94 42.64 42.67 41.46 41.09 41.10 40.07 40.16 39.94 38.59 39.49
43.06 42.61 43.25 44.08 44.58 44.60 44.06 44.41 44.70 43.48 43.16 43.12 42.98 42.76 42.11 41.04 42.16 40.25 40.03 39.99 39.52 39.14
42.17 41.67 42.09 43.19 43.21 44.29 44.36 43.68 43.92 44.14 42.98 42.45 42.75 42.62 42.18 42.11 41.31 40.82 40.63 40.43 39.50 39.88
40.89 41.23 41.32 41.53 41.62 42.53 43.66 43.16 43.09 43.61 44.11 43.77 43.11 43.01 42.31 41.72 41.06 40.81 40.96 40.85 40.33 40.08
41.01 41.18 41.26 41.35 41.38 41.75 41.48 43.04 43.32 43.17 43.14 43.53 43.39 43.10 42.14 41.74 41.10 40.34 40.03 40.69 40.50 40.49
41.09 41.28 41.19 41.12 41.27 41.15 41.04 40.54 40.36 41.63 42.29 42.13 43.38 47.24 48.37 44.53 40.93 40.99 40.47 39.52 39.47 40.66
41.09 41.00 40.83 41.27 41.14 40.65 40.21 40.08 39.70 39.91 40.53 41.34 41.99 48.43 49.73 49.19 43.29 40.93 40.38 40.39 40.09 39.65
40.83 40.70 40.78 40.55 40.51 40.28 39.93 39.91 39.95 40.86 40.86 41.15 42.41 46.93 49.49 50.21 45.79 43.61 41.25 40.94 40.70 39.76
40.92 40.41 40.29 39.84 39.67 39.97 39.37 39.66 40.28 41.26 40.87 40.15 41.89 47.43 49.10 48.55 45.41 44.34 43.42 41.77 41.18 40.36
41.76 40.91 40.18 40.54 39.67 39.82 39.88 41.32 41.57 41.56 41.02 43.48 41.92 46.43 48.43 48.04 45.16 43.31 43.25 43.37 42.44 44.49
42.16 41.87 41.44 40.05 39.67 39.78 39.98 40.94 40.40 40.99 41.84 41.16 42.77 43.13 47.98 48.85 45.57 44.03 42.88 42.27 42.19 42.44
MSLP
1020.66 1021.14 1021.52 1021.81 1022.19 1022.62 1022.86 1023.00 1023.18 1023.49 1023.71 1023.90 1024.05 1024.32 1024.89 1025.26 1025.24 1025.34 1025.54 1025.73 1026.01 1026.23
1019.92 1020.33 1020.54 1020.81 1021.21 1021.59 1021.81 1021.99 1022.53 1022.61 1022.83 1023.03 1023.33 1023.53 1023.80 1024.29 1024.50 1024.85 1025.10 1025.28 1025.38 1025.51
1018.96 1019.27 1019.57 1019.99 1020.41 1020.60 1020.96 1021.29 1021.39 1021.77 1022.06 1022.27 1022.47 1022.61 1023.08 1023.52 1023.77 1024.12 1024.21 1024.31 1024.49 1024.59
1018.12 1018.45 1018.89 1019.28 1019.54 1019.81 1020.16 1020.25 1020.52 1020.82 1021.15 1021.64 1021.94 1022.07 1022.12 1022.37 1022.63 1023.04 1023.41 1023.67 1023.88 1023.90
1017.39 1017.81 1018.17 1018.38 1018.57 1019.00 1019.23 1019.49 1019.81 1020.28 1020.58 1020.68 1021.02 1021.44 1021.64 1021.59 1021.70 1022.03 1022.12 1022.31 1022.75 1022.84
1016.89 1017.17 1017.42 1017.62 1017.96 1018.22 1018.49 1018.77 1018.98 1019.02 1019.43 1019.86 1019.95 1020.31 1020.55 1020.80 1021.02 1021.14 1021.19 1021.31 1021.51 1021.56
1016.43 1016.52 1016.71 1016.96 1017.22 1017.45 1017.71 1017.93 1018.10 1018.36 1018.53 1018.52 1018.92 1019.08 1019.24 1019.60 1019.96 1020.07 1020.15 1020.34 1020.51 1020.68
1015.93 1015.98 1016.12 1016.29 1016.42 1016.57 1016.77 1016.98 1017.17 1017.40 1017.59 1017.82 1017.80 1017.97 1018.35 1018.62 1018.80 1019.03 1019.20 1019.28 1019.23 1019.23
1015.54 1015.50 1015.54 1015.63 1015.78 1015.99 1016.31 1016.47 1016.72 1016.92 1016.75 1016.82 1016.78 1016.59 1016.60 1017.07 1017.37 1017.72 1017.92 1017.98 1018.11 1018.36
1015.00 1015.07 1015.09 1015.15 1015.47 1015.56 1015.66 1015.87 1015.92 1016.09 1016.30 1016.08 1015.78 1015.82 1015.96 1016.20 1016.50 1016.66 1016.69 1016.76 1016.79 1016.99
1014.40 1014.47 1014.52 1014.68 1014.71 1014.80 1014.95 1015.18 1015.32 1015.28 1015.43 1015.36 1014.93 1015.25 1015.39 1015.50 1015.51 1015.39 1015.46 1015.66 1015.72 1015.94
1013.66 1013.73 1013.82 1013.80 1013.78 1013.98 1014.21 1014.21 1014.19 1014.21 1014.31 1014.56 1014.21 1014.19 1014.13 1014.47 1014.49 1014.23 1014.13 1014.45 1014.60 1014.73
1012.84 1013.00 1013.04 1012.94 1013.02 1013.06 1013.29 1013.35 1013.58 1013.32 1013.27 1013.12 1012.88 1012.67 1012.83 1013.04 1013.36 1013.34 1013.21 1013.38 1013.72 1013.76
1011.80 1011.95 1011.91 1012.13 1012.44 1012.60 1012.81 1012.79 1012.79 1012.89 1012.53 1012.44 1012.23 1011.97 1011.92 1011.92 1012.02 1011.76 1011.89 1012.00 1012.44 1012.82
Wind_Speed
14 10 11 12 9 9 9 9 8 10 9 10 10 9 7 5 6 6 6 8 6 4
11 13 12 12 10 9 9 8 8 11 11 11 11 11 9 8 8 6 6 7 7 6
12 13 12 10 12 12 9 9 10 11 12 11 12 11 10 8 7 9 7 7 8 7
9 10 10 11 12 12 9 11 12 11 12 12 12 12 11 11 10 12 10 9 7 11
7 8 10 12 12 10 11 10 12 10 11 12 12 11 13 13 13 13 13 13 11 11
7 8 10 10 10 11 11 10 11 12 12 12 12 12 13 13 13 12 14 13 12 13
7 7 7 8 8 9 10 11 11 12 13 13 13 13 13 13 13 14 13 13 13 13
6 6 7 7 8 8 8 11 12 12 12 12 13 11 14 14 14 14 14 13 14 14
6 7 7 7 7 7 7 7 7 11 12 12 11 22 25 18 14 15 15 15 13 14
7 7 7 7 7 8 8 7 8 9 9 13 13 22 24 25 14 13 14 15 14 12
7 8 7 7 8 8 6 8 7 9 9 11 11 19 22 24 17 15 15 15 15 14
8 8 8 9 9 8 6 7 8 7 9 10 13 17 20 19 14 15 16 14 15 14
8 9 9 10 9 6 5 9 6 9 9 15 14 17 20 19 11 13 12 12 14 24
9 11 10 7 5 5 7 6 7 9 9 9 11 12 18 21 13 12 11 10 11 10
Wind_Direction
211 209 214 209 209 208 213 216 205 208 212 211 206 209 203 212 220 208 215 218 216 216
209 210 211 211 204 211 208 209 199 204 210 214 213 211 203 213 220 209 215 221 219 219
210 211 214 205 208 212 209 206 205 209 213 215 217 209 206 217 217 213 221 220 217 222
205 207 206 211 215 213 208 204 212 208 209 215 216 216 209 213 211 215 225 228 217 233
210 200 203 213 212 206 212 211 214 213 214 212 213 215 221 220 221 218 221 224 225 227
215 204 212 212 206 204 213 212 215 210 212 213 210 211 219 224 223 223 227 225 221 228
230 220 215 210 204 203 208 210 211 215 220 216 215 216 216 217 224 227 229 227 224 226
240 232 225 216 214 210 204 215 214 212 217 221 217 217 222 222 224 225 232 233 229 226
236 229 224 224 220 216 224 217 209 222 221 221 224 229 223 214 217 222 227 232 233 237
229 229 226 221 222 224 223 219 223 228 228 237 233 234 230 227 227 230 228 230 234 229
226 229 225 219 221 223 211 222 231 238 238 243 245 242 241 236 232 232 232 229 230 230
218 224 218 222 220 223 218 221 222 230 230 229 253 246 242 239 237 239 238 228 228 225
220 223 222 225 222 213 208 230 223 237 225 232 242 240 238 236 237 244 243 238 235 232
220 223 224 221 214 217 223 231 229 238 249 238 237 250 242 238 236 238 239 234 237 235